Charlevoix, MI

7:56 PM EST on December 16, 2017 (GMT -0500)
Charlevoix Municipal

Weather History for KCVX - September, 2012

Change the Weather History Date:

Tuesday, September 4, 2012

  Actual Average Record
Temperature  
Mean Temperature 72 °F -  
Max Temperature 78 °F 69 °F 78 °F (2012)
Min Temperature 65 °F 54 °F 50 °F (2010)
Cooling Degree Days 6    
Growing Degree Days 22 (Base 50)    
Moisture  
Dew Point 66 °F    
Average Humidity 85    
Maximum Humidity 98    
Minimum Humidity 63    
Precipitation  
Precipitation 0.00 in - - ()
Sea Level Pressure  
Sea Level Pressure 29.92 in    
Wind  
Wind Speed 5 mph (NE)    
Max Wind Speed 14 mph    
Max Gust Speed 16 mph    
Visibility 9 miles    
Events Fog , Rain    
Averages and records for this station are not official NWS values.
T = Trace of Precipitation, MM = Missing Value Source: NWS Daily Summary

Daily Weather History Graph

Daily Weather History Graph

Search for Another Location

Airport or City:

Trip Planner

Search our weather history database for the weather conditions in past years. The results will help you decide how hot, cold, wet, or windy it might be!

Date:

Astronomy

Sep. 04, 2012 Rise Set
Actual Time 7:06 AM EDT 8:12 PM EDT
Civil Twilight 6:36 AM EDT 8:42 PM EDT
Nautical Twilight 6:00 AM EDT 9:18 PM EDT
Astronomical Twilight 5:22 AM EDT 9:56 PM EDT
Moon 9:48 PM EDT (9/4) 11:28 AM EDT (9/4)
Length of Visible Light 14h 05m
Length of Day
13h 05m
Waning Gibbous, 84% of the Moon is Illuminated
Sep 4
Waning Gibbous
Sep 8
Last Quarter
Sep 15
New
Sep 22
First Quarter
Sep 29
Full

Hourly Weather History & Observations

Time (EDT) Temp. Dew Point Humidity Pressure Visibility Wind Dir Wind Speed Gust Speed Precip Events Conditions
12:14 AM 68.4 °F 66.6 °F 94% 29.93 in 10.0 mi SSE 12.7 mph - N/A Rain Light Rain
12:34 AM 68.5 °F 66.2 °F 92% 29.92 in 10.0 mi SSE 8.1 mph 16.1 mph N/A Rain Light Rain
12:54 AM 68.9 °F 65.8 °F 90% 29.92 in 10.0 mi South 5.8 mph - N/A   Scattered Clouds
1:14 AM 68.9 °F 66.0 °F 90% 29.93 in 10.0 mi East 4.6 mph - N/A   Clear
1:34 AM 68.2 °F 65.7 °F 92% 29.93 in 10.0 mi Calm Calm - N/A Rain Light Rain
1:54 AM 68.0 °F 66.0 °F 93% 29.94 in 10.0 mi West 5.8 mph - N/A Rain Light Rain
2:14 AM 68.2 °F 66.2 °F 93% 29.94 in 10.0 mi Calm Calm - N/A   Clear
2:34 AM 68.2 °F 66.0 °F 93% 29.94 in 10.0 mi Calm Calm - N/A   Scattered Clouds
2:54 AM 68.0 °F 66.2 °F 94% 29.94 in 10.0 mi Calm Calm - N/A   Scattered Clouds
3:14 AM 68.4 °F 66.7 °F 95% 29.93 in 10.0 mi Calm Calm - N/A   Scattered Clouds
3:34 AM 68.5 °F 66.7 °F 94% 29.93 in 10.0 mi Calm Calm - N/A   Scattered Clouds
3:54 AM 68.0 °F 66.6 °F 95% 29.93 in 10.0 mi SSE 3.5 mph - N/A   Clear
4:14 AM 68.4 °F 67.3 °F 96% 29.93 in 10.0 mi Calm Calm - N/A   Clear
4:34 AM 68.0 °F 66.6 °F 95% 29.93 in 10.0 mi Calm Calm - N/A   Clear
4:54 AM 67.8 °F 66.6 °F 96% 29.93 in 10.0 mi Calm Calm - N/A   Clear
5:14 AM 66.9 °F 65.7 °F 96% 29.94 in 7.0 mi Calm Calm - N/A   Clear
5:54 AM 66.0 °F 65.1 °F 97% 29.94 in 5.0 mi Calm Calm - N/A   Clear
6:14 AM 65.5 °F 64.8 °F 98% 29.94 in 5.0 mi Calm Calm - N/A   Clear
6:34 AM 65.5 °F 64.8 °F 98% 29.94 in 5.0 mi Calm Calm - N/A   Clear
6:55 AM 65.3 °F 64.6 °F 98% 29.95 in 3.0 mi Calm Calm - N/A   Clear
7:14 AM 65.1 °F 64.6 °F 98% 29.95 in 0.5 mi Calm Calm - N/A Fog Fog
7:34 AM 65.8 °F 65.3 °F 98% 29.96 in 5.0 mi Calm Calm - N/A   Mostly Cloudy
7:54 AM 66.0 °F 65.5 °F 98% 29.96 in 4.0 mi Calm Calm - N/A   Scattered Clouds
8:14 AM 67.1 °F 66.6 °F 98% 29.96 in 5.0 mi Calm Calm - N/A   Clear
8:35 AM 68.0 °F 67.3 °F 98% 29.95 in 7.0 mi Calm Calm - N/A   Clear
8:54 AM 69.6 °F 67.3 °F 92% 29.94 in 10.0 mi East 3.5 mph - N/A   Clear
9:14 AM 70.7 °F 66.2 °F 86% 29.94 in 10.0 mi East 4.6 mph - N/A   Clear
9:34 AM 71.1 °F 66.2 °F 85% 29.94 in 10.0 mi East 4.6 mph - N/A   Clear
9:54 AM 71.8 °F 66.4 °F 83% 29.94 in 10.0 mi ESE 4.6 mph - N/A   Clear
10:14 AM 72.5 °F 66.7 °F 82% 29.94 in 10.0 mi ESE 5.8 mph - N/A   Clear
10:34 AM 73.2 °F 66.0 °F 78% 29.94 in 10.0 mi ESE 5.8 mph - N/A   Clear
10:54 AM 74.1 °F 64.9 °F 73% 29.94 in 10.0 mi East 6.9 mph - N/A   Clear
11:14 AM 75.4 °F 65.1 °F 70% 29.95 in 10.0 mi ESE 4.6 mph - N/A   Clear
11:34 AM 76.6 °F 65.7 °F 69% 29.94 in 10.0 mi East 5.8 mph - N/A   Clear
11:54 AM 76.8 °F 64.0 °F 65% 29.94 in 10.0 mi ESE 5.8 mph - N/A   Clear
12:14 PM 77.4 °F 64.8 °F 65% 29.94 in 10.0 mi East 5.8 mph - N/A   Clear
12:34 PM 78.3 °F 64.8 °F 63% 29.93 in 10.0 mi East 4.6 mph - N/A   Clear
12:54 PM 77.9 °F 66.6 °F 68% 29.92 in 10.0 mi North 6.9 mph - N/A   Clear
1:14 PM 77.4 °F 66.2 °F 68% 29.92 in 10.0 mi North 6.9 mph - N/A   Clear
1:34 PM 77.9 °F 65.8 °F 66% 29.92 in 10.0 mi North 8.1 mph - N/A   Clear
1:54 PM 77.0 °F 65.7 °F 68% 29.91 in 10.0 mi North 11.5 mph - N/A   Clear
2:14 PM 77.2 °F 65.8 °F 68% 29.91 in 10.0 mi North 9.2 mph - N/A   Clear
2:34 PM 76.3 °F 67.3 °F 74% 29.92 in 10.0 mi North 10.4 mph - N/A   Clear
2:54 PM 75.0 °F 67.6 °F 78% 29.91 in 10.0 mi North 13.8 mph - N/A   Clear
3:14 PM 75.9 °F 67.8 °F 76% 29.91 in 10.0 mi NNW 10.4 mph - N/A   Clear
3:34 PM 75.4 °F 68.2 °F 78% 29.91 in 10.0 mi NNW 9.2 mph - N/A   Clear
3:54 PM 74.5 °F 67.3 °F 78% 29.91 in 10.0 mi North 8.1 mph - N/A   Clear
4:14 PM 74.5 °F 67.8 °F 80% 29.91 in 10.0 mi North 5.8 mph - N/A   Clear
4:34 PM 74.8 °F 68.0 °F 79% 29.90 in 10.0 mi NNW 8.1 mph - N/A   Clear
4:55 PM 74.5 °F 67.8 °F 80% 29.91 in 10.0 mi NNW 6.9 mph - N/A   Clear
5:14 PM 74.3 °F 67.1 °F 78% 29.90 in 10.0 mi North 6.9 mph - N/A   Clear
5:34 PM 74.5 °F 67.5 °F 79% 29.90 in 10.0 mi NNW 6.9 mph - N/A   Clear
5:54 PM 74.3 °F 67.1 °F 78% 29.90 in 10.0 mi NNW 5.8 mph - N/A   Clear
6:14 PM 74.3 °F 66.7 °F 77% 29.90 in 10.0 mi North 5.8 mph - N/A   Clear
6:34 PM 73.8 °F 66.2 °F 77% 29.90 in 10.0 mi North 5.8 mph - N/A   Clear
6:54 PM 73.4 °F 65.7 °F 77% 29.89 in 10.0 mi NNE 6.9 mph - N/A   Clear
7:14 PM 73.2 °F 66.4 °F 79% 29.89 in 10.0 mi North 5.8 mph - N/A   Clear
7:34 PM 72.5 °F 66.2 °F 81% 29.88 in 10.0 mi North 3.5 mph - N/A   Clear
7:54 PM 71.8 °F 66.4 °F 83% 29.87 in 10.0 mi NNE 3.5 mph - N/A   Clear
8:14 PM 71.6 °F 65.7 °F 81% 29.87 in 10.0 mi Calm Calm - N/A   Clear
8:34 PM 71.2 °F 65.7 °F 82% 29.87 in 10.0 mi Calm Calm - N/A   Clear
8:54 PM 69.1 °F 65.5 °F 88% 29.88 in 10.0 mi Calm Calm - N/A   Clear
9:14 PM 67.3 °F 65.3 °F 93% 29.89 in 10.0 mi Calm Calm - N/A   Clear
9:34 PM 67.1 °F 65.3 °F 94% 29.88 in 7.0 mi Calm Calm - N/A   Clear
9:54 PM 67.1 °F 64.9 °F 93% 29.88 in 10.0 mi Calm Calm - N/A   Clear
10:14 PM 67.3 °F 65.1 °F 93% 29.87 in 10.0 mi SE 3.5 mph - N/A   Clear
10:34 PM 68.2 °F 65.3 °F 90% 29.87 in 10.0 mi SE 4.6 mph - N/A   Clear
11:14 PM 68.5 °F 65.5 °F 90% 29.87 in 10.0 mi Calm Calm - N/A   Clear
11:34 PM 65.8 °F 64.0 °F 94% 29.88 in 10.0 mi Calm Calm - N/A   Clear
11:54 PM 66.4 °F 64.6 °F 94% 29.89 in 10.0 mi SSE 3.5 mph - N/A   Clear